[[{"header":{"parameterUnit":"m.s-1","parameterCategory":1,"la1":30.2991,"la2":30.254,"lo1":-89.0895,"lo2":-89.0444,"dy":0.0017,"dx":0.0017,"nx":28,"ny":28,"refTime":"2023-10-21T03:00:00:Z","depth":0,"parameterNumber":2,"parameterNumberName":"U-component_of_WINDS"},"data":[0,0,0,0,0,0,0,0,0,0,0,0,0,0,0,0,0,0,0,0,0,0,0,0,0,0,0,0,0,0,0,0,0,0,0,0,0,0,0,0,0,0,0,0,0,0,0,0,0,0,0,0,0,0,0,0,0,0,1.1326,1.1326,0,1.1396,1.1397,1.1398,1.1405,1.1404,1.1403,1.1403,1.1475,1.1477,1.148,0,0,0,0,0,0,0,0,0,0,0,0,0,1.1198,1.12,1.1326,1.1327,1.1327,1.1396,1.1397,1.1398,1.1405,1.1404,1.1403,1.1402,1.1474,1.1477,1.148,0,0,0,0,0,0,0,0,0,0,0,0,0,1.1259,1.1201,1.1325,1.1339,1.1341,1.1396,1.1397,1.1398,1.1405,1.1404,1.1403,1.1402,1.1473,1.1477,1.1481,1.1527,0,0,1.1493,1.1494,0,0,0,0,0,0,0,0,1.1256,1.1264,1.1336,1.1338,1.1341,1.1391,1.1378,1.1441,1.1405,1.1381,1.1403,1.1401,1.1448,1.1454,1.1469,1.153,1.1533,1.1493,1.1495,1.1497,1.1498,0,0,0,0,0,0,0,1.1251,1.1261,1.1354,1.1337,1.134,1.1342,1.1349,1.139,1.1419,1.1383,1.1383,1.1392,1.1449,1.1465,1.1471,1.1534,1.1493,1.1496,1.1499,1.15,1.1637,1.1638,0,0,0,0,0,0,1.1245,1.1257,1.1351,1.1356,1.1295,1.1345,1.1354,1.1376,1.1419,1.1425,1.1393,1.1392,1.1459,1.1466,1.1474,1.1531,1.1497,1.1501,1.1503,1.1636,1.1637,1.1639,0,0,0,0,0,0,1.1242,1.1253,1.1348,1.1307,1.1319,1.1348,1.1373,1.1378,1.1394,1.1426,1.1432,1.1404,1.1459,1.1468,1.1514,1.1533,1.1502,1.1506,1.1634,1.1636,1.1638,1.1645,0,0,0,0,0,0,1.1238,1.1252,1.1269,1.1307,1.1321,1.1387,1.1374,1.138,1.1401,1.1401,1.1439,1.1444,1.1459,1.1508,1.1517,1.1538,1.1509,1.1633,1.1635,1.1637,1.1643,1.1647,1.165,0,0,0,0,0,1.1233,1.1268,1.127,1.1281,1.1344,1.1388,1.1396,1.1412,1.1403,1.1421,1.1441,1.1443,1.153,1.1512,1.1523,1.1545,1.1631,1.1634,1.1637,1.1641,1.1646,1.165,0,0,0,0,0,0,1.1232,1.1273,1.1276,1.1324,1.1353,1.1389,1.1412,1.1416,1.1448,1.1446,1.1465,1.1473,1.1518,1.1537,1.1516,1.1593,1.158,1.1585,1.1579,1.1584,1.1587,1.1581,1.1512,0,0,0,0,0,1.1237,1.1269,1.1304,1.1343,1.1357,1.1382,1.1402,1.1412,1.1443,1.1455,1.1479,1.1508,1.1542,1.1564,1.1597,1.1646,1.1654,1.1667,1.167,1.1673,1.1677,1.1705,1.1711,1.1648,1.1648,1.1648,0,0,1.1248,1.1275,1.1294,1.1344,1.1367,1.14,1.1392,1.1428,1.1453,1.146,1.1504,1.1523,1.1557,1.1605,1.1627,1.1621,1.1696,1.1677,1.1678,1.1681,1.1708,1.1714,1.1719,1.165,1.165,1.165,0,0,1.1285,1.1309,1.1344,1.1368,1.1403,1.142,1.1428,1.1465,1.1478,1.1523,1.1529,1.1559,1.1617,1.1641,1.1661,1.1709,1.1711,1.1719,1.1737,1.1764,1.1769,1.1773,1.179,1.1796,1.1723,1.1723,1.1723,0,1.1294,1.1345,1.1361,1.1397,1.1419,1.1427,1.1463,1.1485,1.153,1.1545,1.1538,1.1611,1.1635,1.1689,1.17,1.1716,1.1727,1.1714,1.1767,1.1771,1.1776,1.1792,1.1799,1.1724,1.1724,1.1724,1.1724,0,1.1354,1.1389,1.1414,1.1457,1.1481,1.1517,1.1539,1.1562,1.157,1.1588,1.1634,1.1663,1.1702,1.1716,1.1724,1.1771,1.1766,1.1763,1.175,1.1782,1.1798,1.1804,1.1725,1.1725,1.1724,1.1724,0,0,1.1391,1.1444,1.1452,1.1472,1.1513,1.154,1.1577,1.1615,1.1634,1.1665,1.1696,1.1746,1.1743,1.1766,1.1777,1.1801,1.1837,1.1795,1.1796,1.1801,1.1891,1.1893,1.19,1.1839,1.1841,1.1842,1.1888,0,1.1432,1.1497,1.1514,1.1569,1.1602,1.1611,1.1643,1.1671,1.1689,1.172,1.1739,1.1774,1.1768,1.1782,1.1806,1.1827,1.1855,1.1824,1.1868,1.187,1.1859,1.1908,1.191,1.1952,1.1894,1.1895,1.1896,0,1.1489,1.1521,1.158,1.1617,1.1631,1.1659,1.1696,1.1726,1.1758,1.177,1.1796,1.1805,1.1844,1.1829,1.1883,1.1862,1.1881,1.1895,1.1897,1.1901,1.1884,1.1913,1.1966,1.1972,1.1906,1.1905,1.1904,0,1.151,1.1568,1.1611,1.1627,1.1672,1.1691,1.1711,1.1742,1.1765,1.1797,1.1812,1.1849,1.1869,1.1897,1.1916,1.1904,1.1969,1.1956,1.1979,1.1979,1.1992,1.1991,1.2048,1.2005,1.2005,1.2005,1.2005,0,1.1554,1.1589,1.1621,1.1647,1.1687,1.1706,1.1746,1.1766,1.1794,1.1824,1.1835,1.1863,1.1887,1.1919,1.1934,1.1976,1.1985,1.1996,1.1999,1.1995,1.1993,1.2007,1.2004,1.2006,1.2006,1.2006,1.2005,0,1.1583,1.1606,1.1653,1.1691,1.1702,1.173,1.1763,1.1789,1.1807,1.1846,1.1856,1.1885,1.1923,1.1945,1.1993,1.2003,1.205,1.2053,1.2039,1.2041,1.2063,1.206,1.213,1.214,1.2091,1.2091,1.2092,0,1.1609,1.1637,1.1679,1.17,1.172,1.1754,1.1777,1.1797,1.1821,1.1861,1.1882,1.1921,1.1953,1.2014,1.2039,1.2076,1.208,1.2102,1.2085,1.208,1.208,1.2078,1.2081,1.2104,1.2105,1.2105,1.2105,0,1.1654,1.1664,1.1697,1.1734,1.1761,1.1791,1.1821,1.1838,1.1864,1.189,1.193,1.1954,1.2004,1.2042,1.2082,1.2102,1.2108,1.211,1.2118,1.2113,1.2104,1.2109,1.2047,1.2108,1.2108,1.2108,1.2108,1.2108,1.1682,1.1707,1.1741,1.1777,1.1802,1.183,1.1857,1.1879,1.1912,1.1954,1.1965,1.2006,1.2039,1.2092,1.2114,1.2147,1.2143,1.2153,1.2156,1.2158,1.2159,1.2099,1.2154,1.2154,1.2154,1.2154,1.2154,0,1.1727,1.1749,1.1783,1.1825,1.1854,1.1857,1.1891,1.1915,1.1951,1.1982,1.2013,1.2059,1.2097,1.2126,1.2164,1.2185,1.2189,1.2195,1.2193,1.2198,1.216,1.215,1.2191,1.2191,1.2191,1.2191,1.2191,1.2191,1.1753,1.1796,1.181,1.1866,1.1888,1.1929,1.1948,1.1974,1.1998,1.2049,1.208,1.2099,1.2129,1.2171,1.2206,1.2213,1.2227,1.2232,1.224,1.2204,1.22,1.2196,1.2187,1.2235,1.2235,1.2275,1.2275,1.2276]},{"header":{"parameterUnit":"m.s-1","parameterCategory":1,"la1":30.2991,"la2":30.254,"lo1":-89.0895,"lo2":-89.0444,"dy":0.0017,"dx":0.0017,"nx":28,"ny":28,"refTime":"2023-10-21T03:00:00:Z","depth":0,"parameterNumber":3,"parameterNumberName":"V-component_of_WINDS"},"data":[0,0,0,0,0,0,0,0,0,0,0,0,0,0,0,0,0,0,0,0,0,0,0,0,0,0,0,0,0,0,0,0,0,0,0,0,0,0,0,0,0,0,0,0,0,0,0,0,0,0,0,0,0,0,0,0,0,0,2.0843,2.0843,0,2.086,2.086,2.086,2.0816,2.0815,2.0813,2.0812,2.0828,2.083,2.0831,0,0,0,0,0,0,0,0,0,0,0,0,0,2.077,2.0772,2.0843,2.0843,2.0843,2.086,2.086,2.086,2.0816,2.0815,2.0813,2.0811,2.0827,2.0829,2.0831,0,0,0,0,0,0,0,0,0,0,0,0,0,2.0796,2.0773,2.0843,2.0823,2.0822,2.086,2.086,2.0861,2.0817,2.0815,2.0812,2.0811,2.0827,2.0829,2.0832,2.0889,0,0,2.084,2.0841,0,0,0,0,0,0,0,0,2.0795,2.0799,2.0826,2.0825,2.0823,2.0834,2.0841,2.087,2.0817,2.0819,2.0812,2.081,2.0831,2.0833,2.0841,2.089,2.0891,2.084,2.0841,2.0842,2.0843,0,0,0,0,0,0,0,2.0793,2.0798,2.0849,2.0826,2.0825,2.0813,2.0815,2.0846,2.0836,2.0818,2.0815,2.0818,2.083,2.0839,2.0841,2.0891,2.084,2.0842,2.0844,2.0845,2.0988,2.0991,0,0,0,0,0,0,2.0794,2.0797,2.0849,2.085,2.0804,2.0816,2.0818,2.0832,2.0836,2.0834,2.082,2.0816,2.0835,2.0838,2.0842,2.091,2.0842,2.0845,2.0846,2.0986,2.0989,2.0991,0,0,0,0,0,0,2.0793,2.0799,2.0848,2.0823,2.0828,2.082,2.0836,2.0834,2.0842,2.0837,2.0835,2.083,2.0834,2.0838,2.0878,2.091,2.0846,2.0848,2.0984,2.0987,2.099,2.1046,0,0,0,0,0,0,2.0791,2.0799,2.0821,2.0823,2.083,2.0885,2.0838,2.0836,2.0847,2.0842,2.0846,2.0845,2.0833,2.0874,2.0881,2.0912,2.085,2.0981,2.0985,2.0989,2.1042,2.1051,2.106,0,0,0,0,0,2.0788,2.0835,2.0822,2.0829,2.0857,2.0887,2.089,2.0875,2.085,2.0872,2.0868,2.0845,2.0905,2.0879,2.0885,2.0918,2.0979,2.0984,2.0989,2.1038,2.1049,2.1059,0,0,0,0,0,0,2.0835,2.0835,2.0821,2.087,2.0879,2.0879,2.0906,2.0888,2.0904,2.0899,2.0879,2.088,2.0924,2.0925,2.0896,2.0975,2.0938,2.0944,2.0972,2.0984,2.0992,2.0991,2.0852,0,0,0,0,0,2.0852,2.0877,2.0875,2.0918,2.0924,2.0915,2.0927,2.0915,2.0923,2.0926,2.0926,2.0934,2.0955,2.0969,2.0988,2.1042,2.1042,2.1067,2.1076,2.1084,2.109,2.1119,2.1131,2.1008,2.1008,2.1008,0,0,2.0885,2.0888,2.0905,2.0928,2.0933,2.096,2.0918,2.0947,2.0966,2.093,2.0969,2.0969,2.0977,2.1024,2.1045,2.1026,2.1124,2.109,2.1096,2.1098,2.1126,2.1137,2.1148,2.1012,2.1011,2.1011,0,0,2.096,2.0965,2.1002,2.1009,2.1018,2.1012,2.1021,2.1024,2.1023,2.1062,2.1036,2.1058,2.1094,2.1102,2.111,2.1189,2.1168,2.1196,2.1243,2.1271,2.1281,2.1289,2.1318,2.1329,2.1202,2.1202,2.1202,0,2.1,2.1039,2.1023,2.1055,2.1066,2.1036,2.1074,2.1081,2.1096,2.1104,2.1083,2.1129,2.1132,2.1181,2.1201,2.1208,2.1218,2.1195,2.1281,2.1289,2.1297,2.1324,2.1335,2.1205,2.1205,2.1205,2.1204,0,2.1089,2.1116,2.1145,2.1161,2.1176,2.121,2.1199,2.1216,2.1203,2.1199,2.1239,2.1242,2.1261,2.1272,2.1259,2.132,2.1308,2.1284,2.1247,2.1312,2.1338,2.1348,2.121,2.1209,2.1208,2.1207,0,0,2.1193,2.1201,2.1212,2.122,2.1228,2.1249,2.1282,2.1302,2.1317,2.1328,2.1356,2.1388,2.1367,2.1376,2.1364,2.1389,2.1453,2.1363,2.1363,2.138,2.1521,2.1539,2.1551,2.1439,2.1441,2.1443,2.152,0,2.1267,2.1325,2.1312,2.1369,2.1395,2.1367,2.1396,2.1405,2.1402,2.1423,2.142,2.1443,2.1413,2.1419,2.1443,2.144,2.1481,2.1434,2.1465,2.1466,2.1464,2.1564,2.1583,2.1656,2.153,2.1532,2.1533,0,2.1361,2.1378,2.1438,2.1443,2.1454,2.148,2.1498,2.1518,2.1527,2.1524,2.1536,2.1519,2.1552,2.1514,2.156,2.1528,2.154,2.1541,2.1543,2.1546,2.1504,2.157,2.1679,2.1691,2.1548,2.1547,2.1546,0,2.1432,2.1469,2.151,2.1517,2.1525,2.1544,2.1548,2.1555,2.1569,2.1584,2.1593,2.1612,2.1622,2.1637,2.1626,2.1599,2.1674,2.1635,2.1672,2.1672,2.1689,2.1688,2.1802,2.1696,2.1695,2.1695,2.1695,0,2.1517,2.1554,2.1542,2.1567,2.1609,2.1594,2.1636,2.1637,2.1644,2.1668,2.1646,2.1669,2.1653,2.1675,2.1667,2.1706,2.1711,2.1709,2.1706,2.1712,2.1712,2.1719,2.1714,2.1698,2.1697,2.1697,2.1696,0,2.1603,2.1596,2.1639,2.1643,2.1645,2.1676,2.1679,2.1703,2.1699,2.1731,2.1737,2.1731,2.1757,2.1747,2.1774,2.1768,2.1819,2.1809,2.1816,2.1814,2.1852,2.1849,2.1975,2.1991,2.1874,2.1875,2.1876,0,2.1657,2.1686,2.1694,2.171,2.1716,2.174,2.1754,2.1741,2.1756,2.177,2.1792,2.1816,2.1834,2.1875,2.1873,2.1894,2.1885,2.1928,2.1887,2.1892,2.1886,2.1885,2.1888,2.1936,2.1937,2.1938,2.1939,0,2.1755,2.1751,2.1772,2.1793,2.181,2.1826,2.1839,2.1853,2.184,2.1859,2.1885,2.1899,2.1927,2.1951,2.197,2.1973,2.1955,2.1952,2.1961,2.1967,2.197,2.197,2.1839,2.1949,2.1948,2.1947,2.1947,2.1946,2.1827,2.1852,2.1862,2.1887,2.1896,2.1909,2.1932,2.1932,2.1954,2.1976,2.1967,2.1997,2.2006,2.203,2.2036,2.206,2.2043,2.2057,2.2061,2.2065,2.207,2.1966,2.2063,2.2063,2.2062,2.2062,2.2062,0,2.1925,2.193,2.1953,2.1973,2.1993,2.1974,2.1988,2.2006,2.2034,2.2044,2.2063,2.2094,2.2117,2.2117,2.2139,2.2158,2.215,2.2164,2.2163,2.2164,2.2083,2.2073,2.2171,2.2171,2.2171,2.2171,2.217,2.217,2.1978,2.2019,2.2016,2.2062,2.2067,2.2097,2.2107,2.2119,2.2128,2.2164,2.2184,2.2184,2.2191,2.2213,2.2234,2.2233,2.2242,2.226,2.2257,2.2181,2.217,2.216,2.215,2.2262,2.2262,2.2336,2.2336,2.2337]}]]